Regional Weather Roundup
Issued by NWS

Home | Current Version | Previous Version | Graphics & Text | Print | Product List | Glossary On
Versions: 1 2 3 4 5 6 7 8 9 10 11 12 13 14 15 16 17 18 19 20 21 22 23 24 25 26 27 28 29 30 31 32 33 34 35 36 37 38 39 40 41 42 43 44 45 46 47 48 49 50
000
ASUS43 KMKX 250500
RWRWI

WISCONSIN REGIONAL WEATHER ROUNDUP
NATIONAL WEATHER SERVICE MILWAUKEE/SULLIVAN WI
1200 AM CDT MON SEP 25 2017

NOTE: "FAIR" INDICATES FEW OR NO CLOUDS BELOW 12,000 FEET WITH NO
SIGNIFICANT WEATHER AND/OR OBSTRUCTIONS TO VISIBILITY.

WIZ001-002-006>008-014>016-023>028-250600-
NORTHWEST WISCONSIN

CITY           SKY/WX    TMP DP  RH WIND       PRES   REMARKS
SUPERIOR ARPT  FOG       64  64 100 CALM      29.87R VSB 1/2
ASHLAND        CLOUDY    71  63  75 S5        29.89S
HAYWARD        CLOUDY    71  64  78 S3        29.91F
SIREN          CLOUDY    67  66  95 SW5       29.92R
CUMBERLAND     CLOUDY    70  63  78 S6        29.93R
RICE LAKE      CLOUDY    75  63  65 SW6       29.93S
CHETEK         CLOUDY    73  65  74 S3        29.92S
LADYSMITH      CLEAR     73  61  64 S7        29.94S
EAU CLAIRE     NOT AVBL
MENOMONIE      MOCLDY    75  64  67 S6        29.92S
NEW RICHMOND   CLOUDY    71  63  77 NW5       29.92F
OSCEOLA        CLOUDY    70  66  88 W5        29.95S
$$

WIZ003>005-009-010-017-018-250600-
NORTH CENTRAL WISCONSIN

CITY           SKY/WX    TMP DP  RH WIND       PRES   REMARKS
MANITOWISH WTR NOT AVBL
ARBOR VITAE    CLEAR     72  62  70 S9        29.97S
WOODRUFF       CLEAR     72  62  70 S9        29.97S
RHINELANDER    CLEAR     71  61  70 S3        29.99S
EAGLE RIVER    CLEAR     68  58  70 S3        29.98S
LAND O LAKES   CLEAR     70  60  71 S6        30.00S
PHILLIPS       MOCLDY    71  60  69 S9        29.95R
TOMAHAWK       CLEAR     63  59  86 CALM      29.98S
MEDFORD        CLEAR     67  59  76 S7        29.97F
MERRILL        CLEAR     64  60  87 CALM      29.99R
$$

WIZ029-030-035-036-043>047-250600-
CENTRAL WISCONSIN

CITY           SKY/WX    TMP DP  RH WIND       PRES   REMARKS
WAUSAU         CLEAR     67  60  78 SE5       29.97S
MOSINEE        CLEAR     66  59  77 S3        29.99F
MARSHFIELD     CLEAR     68  59  73 S5        29.97S
STEVENS POINT  CLEAR     65  59  82 CALM      29.99S
WAUPACA        CLEAR     70  64  81 CALM      29.99S
WAUTOMA        CLEAR     63  61  93 CALM      29.99S
WISC RAPIDS    CLEAR     70  60  70 S5        29.98F
CAMP DOUGLAS   NOT AVBL
$$

WIZ011>013-019>022-031-037>040-048>050-250600-
NORTHEAST WISCONSIN

CITY           SKY/WX    TMP DP  RH WIND       PRES   REMARKS
ANTIGO         CLEAR     66  61  84 S7        30.01S
SHAWANO        CLEAR     73  63  71 CALM      29.98R
OCONTO         CLEAR     69  61  74 CALM      29.98S
STURGEON BAY   CLEAR     71  61  70 S6        29.99F
GREEN BAY      CLEAR     70  63  78 S5        29.98F
MANITOWOC      CLEAR     65  62  90 E6        30.01S
APPLETON       CLEAR     72  55  56 S7        29.98F
CLINTONVILLE   CLEAR     70  63  78 S3        29.98S
OSHKOSH        CLEAR     69  61  75 S8        29.99S
$$

WIZ032>034-041-042-053>061-250600-
SOUTHWEST WISCONSIN

CITY           SKY/WX    TMP DP  RH WIND       PRES   REMARKS
LA CROSSE      CLEAR     76  65  68 SE5       29.93S
SPARTA         CLEAR     76  62  61 S5        29.96S
VIROQUA        CLEAR     73  62  70 S7        29.98S
BOSCOBEL       CLEAR     68  64  87 CALM      29.96S
PRAIRIE DU CHI CLEAR     71  61  70 E5        29.95F
PLATTEVILLE    CLEAR     72  63  72 SE6       29.99S
$$

WIZ056-057-062-063-064-067-068-250600-
SOUTH CENTRAL WISCONSIN

CITY           SKY/WX    TMP DP  RH WIND       PRES   REMARKS
REEDSBURG      CLEAR     66  63  89 CALM      29.97F
BARABOO/DELLS  CLEAR     69  58  68 S3        29.98F
LONE ROCK      NOT AVBL
MINERAL POINT  CLEAR     72  61  68 SE6       30.00S
MADISON        CLEAR     74  60  61 S6        29.99S
MIDDLETON      CLEAR     65  62  89 CALM      30.00S
WATERTOWN      CLEAR     70  62  74 SE5       30.00S
MONROE         CLEAR     73  57  56 S6        30.00S
JANESVILLE     CLEAR     70  59  68 SE3       29.99S
$$

WIZ051-052-058>065-066-070>072-250600-
SOUTHEAST WISCONSIN

CITY           SKY/WX    TMP DP  RH WIND       PRES   REMARKS
MILWAUKEE      CLEAR     74  62  66 S6        30.00F
WAUKESHA       CLEAR     72  57  60 S5        30.02S
MILWAUKEE/TIMM CLEAR     72  55  56 CALM      30.01F
RACINE         CLEAR     71  65  81 S3        30.02F
BURLINGTON     CLEAR     62  62 100 CALM      30.01S
KENOSHA        CLEAR     70  61  73 SE5       30.01F
FOND DU LAC    CLEAR     70  59  68 S6        30.00S
SHEBOYGAN      CLEAR     65  63  93 CALM      30.00F
WEST BEND        N/A     63  61  94 CALM      30.01F
JUNEAU         CLEAR     69  60  75 SE6       30.01F
$$

LSZ147-162-250600-
LAKE SUPERIOR

STATION/POSITION TIME  TEMP    WIND        PRES    WAVE
                       AIR SEA DIR/SP/G            HT/PER
                 (UTC) (F)     (DEG/KT/KT) (MB)    (FT/S)
W MID LAKE BUOY  0350   63 55  190/ 10/ 12 1010.3F   1
DEVILS ISLAND    0400   63     260/  4/  5 1011.8R
PORT WING        0340   67     110/  5/  6 1011.5F
SAXON HARBOR     0430   77     220/  5/  9 1011.5R
$$

LMZ867-665-643>646-250600-
LAKE MICHIGAN

STATION/POSITION TIME  TEMP    WIND        PRES    WAVE
                       AIR SEA DIR/SP/G            HT/PER
                 (UTC) (F)     (DEG/KT/KT) (MB)    (FT/S)
S GREEN BAY BUOY 0400   74 69  180/ 10/ 14 1015.0
N MID LAKE BUOY  0350   70 67  170/ 14/ 16 1015.9F   1/ 4
NORTHPORT PIER   0440   72     150/  5/  9 1014.9S
KEWAUNEE LAKESHO 0430   66     180/  7/  9 1014.9F
SHEBOYGAN LAKESH 0400   72     200/  6/  7 1015.5F
PORT WASHINGTON  0430   71     170/  3/  4 1016.6F
ATWATER BUOY     0309   67 58  170/  6/  6 1016.4F
MILWAUKEE LAKESH 0440   70     220/  1/  2   N/A
S MID LAKE BUOY  0350   74 71   90/  8/ 10 1016.3F   0
KENOSHA   LAKESH 0400   76     170/ 11/ 12 1015.9
$$

TC  - TEMPERATURE IN CELSIUS
VSB - VISIBILITY IN STATUTE MILES
WCI - WIND CHILL INDEX
HX  - HEAT INDEX





USA.gov is the U.S. government's official web portal to all federal, state and local government web resources and services.